GALAXY 19 (G-19)

Last updated on Sun Apr 12 2026 00:02:51 GMT+0000 (Coordinated Universal Time)

1 33376U 08045A 26101.43020161 -.00000138 00000+0 00000+0 0 9997 2 33376 0.0159 244.6733 0002996 149.2634 223.5892 1.00272746 64238
UTC large
Height (km)
Speed (km/s)
/
Latitude / Longitude
Inclination (degrees)
Orbital Period (minutes)
Azimuth
Elevation
Range (km)
Doppler Factor

Next 0 passes for location: London (51.5072 / 0.1276)

Sorry there are no passes over London.
GALAXY 19 (G-19)